Waarnemingen

Advertentie
Mijn weer
Europlatform, Nederland (6321): temperatuur & dauwpunt: 17.07.2017 08:00:00 - 23.07.2017 08:00:00 (CEST)Europlatform, Nederland (6321): water temperatuur: 17.07.2017 08:00:00 - 23.07.2017 08:00:00 (CEST)Europlatform, Nederland (6321): windsnelheid & windstoten: 17.07.2017 08:00:00 - 23.07.2017 08:00:00 (CEST)Europlatform, Nederland (6321): windrichting: 17.07.2017 08:00:00 - 23.07.2017 08:00:00 (CEST)Europlatform, Nederland (6321): luchtdruk: 17.07.2017 08:00:00 - 23.07.2017 08:00:00 (CEST)Europlatform, Nederland (6321): zicht: 17.07.2017 08:00:00 - 23.07.2017 08:00:00 (CEST)
Datum & Tijd tt [°C] td [°C] tw [°C] ff [km/u] ff [kn] fx [km/u] fx [kn] dd ppp [hPa] vv [km]
23.07.2017 08:00:00 15,9 12,7 18,7 29 16 36 19 Z 1010,4 42
23.07.2017 07:00:00 16,3 12,7 18,7 29 16 36 19 Z 1010,3 42
23.07.2017 06:00:00 16,8 11,4 18,7 32 18 36 19 Z 1010,1 44
23.07.2017 05:00:00 16,9 11,5 18,7 29 16 36 19 Z 1010,5 43
23.07.2017 04:00:00 16,1 11,4 18,7 22 12 40 21 ZZW 1010,6 28
23.07.2017 03:00:00 17,2 10,3 18,7 22 12 29 16 ZZW 1010,6 47
23.07.2017 02:00:00 17,3 11,1 18,8 25 14 29 16 ZZW 1011,0 44
23.07.2017 01:00:00 17,1 12,6 18,8 18 10 22 12 Z 1011,3 39
23.07.2017 00:00:00 17,0 11,8 18,8 14 8 22 12 ZZW 1011,5 44
22.07.2017 23:00:00 17,0 12,2 18,8 14 8 25 14 ZZW 1011,4 41
22.07.2017 22:00:00 17,4 12,2 18,8 22 12 25 14 ZW 1011,6 40
22.07.2017 21:00:00 17,2 13,1 18,7 4 2 7 4 ZZW 1011,0 46
22.07.2017 20:00:00 16,9 13,9 18,7 4 2 7 4 ZW 1010,8 47
22.07.2017 19:00:00 16,6 13,6 18,7 0 0 7 4 N 1010,6 48
22.07.2017 18:00:00 16,4 13,0 18,7 7 4 18 10 WZW 1010,9 47
22.07.2017 17:00:00 15,5 14,5 18,7 11 6 32 18 W 1010,7 39
22.07.2017 16:00:00 16,2 14,2 18,7 11 6 14 8 ZW 1010,8 4,1
22.07.2017 15:00:00 16,7 13,5 18,7 11 6 29 16 ZZW 1011,1 42
22.07.2017 14:00:00 17,4 13,6 18,7 22 12 32 18 ZZW 1011,3 40
22.07.2017 13:00:00 17,8 13,6 18,7 25 14 32 18 Z 1011,0 41
22.07.2017 12:00:00 17,6 14,3 18,7 25 14 32 18 Z 1010,5 32
22.07.2017 11:00:00 17,6 14,4 18,7 29 16 32 18 Z 1010,3 36
22.07.2017 10:00:00 18,6 13,6 18,7 29 16 36 19 Z 1009,6 31
22.07.2017 09:00:00 19,0 13,8 18,7 25 14 36 19 Z 1009,3 36
22.07.2017 08:00:00 19,5 13,8 18,7 25 14 32 18 ZZO 1008,9 37
22.07.2017 07:00:00 19,6 14,8 18,7 22 12 25 14 ZZO 1008,6 42
22.07.2017 06:00:00 19,5 14,9 18,7 22 12 25 14 ZZO 1008,6 41
22.07.2017 05:00:00 19,6 14,6 18,7 22 12 25 14 Z 1008,6 44
22.07.2017 04:00:00 19,5 16,5 18,7 18 10 29 16 Z 1008,2 41
22.07.2017 03:00:00 19,5 16,5 18,7 25 14 32 18 ZO 1008,3 41
22.07.2017 02:00:00 19,8 15,2 18,7 29 16 36 19 OZO 1008,4 33
22.07.2017 01:00:00 20,2 14,1 18,7 29 16 43 23 O 1008,6 31
22.07.2017 00:00:00 20,2 14,0 18,7 29 16 47 25 O 1008,8 34
21.07.2017 23:00:00 20,5 13,3 18,7 36 19 47 25 O 1008,6 35
21.07.2017 22:00:00 20,5 13,6 18,7 36 19 43 23 ONO 1008,7 38
21.07.2017 21:00:00 20,0 15,0 18,7 29 16 36 19 ONO 1008,9 33
21.07.2017 20:00:00 19,5 14,1 18,7 32 18 40 21 NO 1009,2 30
21.07.2017 19:00:00 19,3 13,3 18,7 32 18 36 19 NO 1009,6 40
21.07.2017 18:00:00 19,3 13,2 18,7 29 16 32 18 ONO 1010,2 41
21.07.2017 17:00:00 19,4 11,9 18,7 25 14 29 16 ONO 1011,0 38
21.07.2017 16:00:00 19,1 11,6 18,7 22 12 29 16 O 1011,8 43
21.07.2017 15:00:00 18,7 10,9 18,7 22 12 25 14 O 1012,4 39
21.07.2017 14:00:00 18,2 10,5 18,7 22 12 25 14 OZO 1012,7 36
21.07.2017 13:00:00 17,7 10,2 18,7 22 12 25 14 ZO 1013,0 41
21.07.2017 12:00:00 17,2 10,6 18,7 22 12 25 14 ZO 1013,4 38
21.07.2017 11:00:00 16,8 11,6 18,7 22 12 25 14 ZZO 1013,5 30
21.07.2017 10:00:00 17,0 11,1 18,7 22 12 25 14 Z 1013,6 38
21.07.2017 09:00:00 17,0 10,8 18,7 18 10 22 12 Z 1013,5 35
21.07.2017 08:00:00 16,9 11,4 18,7 18 10 25 14 ZZW 1013,3 33
21.07.2017 07:00:00 16,8 11,4 18,7 22 12 29 16 ZW 1013,1 33
21.07.2017 06:00:00 16,8 11,6 18,7 22 12 29 16 ZW 1012,9 29
21.07.2017 05:00:00 16,9 12,3 18,7 25 14 32 18 ZW 1012,7 23
21.07.2017 04:00:00 17,2 12,0 18,7 22 12 32 18 ZW 1012,6 32
21.07.2017 03:00:00 17,3 12,7 18,7 22 12 32 18 ZW 1012,7 30
21.07.2017 02:00:00 17,4 13,0 18,7 22 12 32 18 ZW 1012,7 28
21.07.2017 01:00:00 17,6 12,7 18,7 25 14 36 19 ZW 1012,5 26
21.07.2017 00:00:00 17,8 12,1 18,7 29 16 43 23 ZW 1012,4 28
20.07.2017 23:00:00 18,0 14,3 18,7 32 18 43 23 ZZW 1011,9 19
20.07.2017 22:00:00 17,9 13,4 18,7 25 14 29 16 ZZW 1011,6 24
20.07.2017 21:00:00 17,2 12,4 18,7 14 8 22 12 ZZW 1011,2 44
20.07.2017 20:00:00 17,1 12,1 18,7 18 10 36 19 WZW 1010,9 36
20.07.2017 19:00:00 17,3 11,8 18,6 36 19 50 27 W 1010,1 35
20.07.2017 18:00:00 17,4 14,5 18,7 43 23 50 27 WZW 1009,1 32
20.07.2017 17:00:00 18,0 16,3 18,7 40 21 61 33 WZW 1008,4 15
20.07.2017 16:00:00 18,3 16,2 18,6 47 25 58 31 ZZW 1007,9 24
20.07.2017 15:00:00 18,9 17,0 18,6 29 16 40 21 Z 1007,2 31
20.07.2017 14:00:00 19,0 16,8 18,6 32 18 36 19 ZZW 1007,1 28
20.07.2017 13:00:00 19,1 17,4 18,5 25 14 29 16 ZZW 1006,8 23
20.07.2017 12:00:00 19,1 17,4 18,5 25 14 32 18 ZZW 1007,0 31
20.07.2017 11:00:00 19,1 17,4 18,5 22 12 25 14 Z 1007,1 33
20.07.2017 10:00:00 19,1 17,8 18,5 22 12 29 16 Z 1007,0 25
20.07.2017 09:00:00 19,0 18,0 18,5 25 14 29 16 ZZW 1006,4 17
20.07.2017 08:00:00 19,1 18,2 18,5 25 14 36 19 Z 1006,5 12
20.07.2017 07:00:00 19,2 17,8 18,5 22 12 29 16 Z 1006,5 21
20.07.2017 06:00:00 19,3 17,5 18,5 25 14 32 18 Z 1006,2 29
20.07.2017 05:00:00 19,3 17,5 18,5 25 14 36 19 ZZW 1006,7 28
20.07.2017 04:00:00 19,1 18,0 18,5 25 14 29 16 Z 1006,8 19
20.07.2017 03:00:00 19,1 18,1 18,5 25 14 29 16 Z 1007,4 20
20.07.2017 02:00:00 19,1 17,9 18,5 22 12 25 14 Z 1007,4 21
20.07.2017 01:00:00 19,1 18,0 18,5 22 12 25 14 Z 1007,7 22
20.07.2017 00:00:00 19,2 17,8 18,5 18 10 25 14 ZZW 1007,9 22
19.07.2017 23:00:00 19,3 18,0 18,5 22 12 29 16 Z 1007,9 18
19.07.2017 22:00:00 19,6 17,8 18,4 25 14 32 18 ZZW 1007,9 21
19.07.2017 21:00:00 19,7 17,6 18,4 22 12 32 18 ZZW 1007,4 22
19.07.2017 20:00:00 20,1 17,4 18,4 18 10 29 16 ZZW 1007,1 23
19.07.2017 19:00:00 20,2 17,2 18,5 25 14 29 16 Z 1006,9 21
19.07.2017 18:00:00 20,3 17,2 18,4 22 12 29 16 Z 1006,7 18
19.07.2017 17:00:00 20,3 17,4 18,4 25 14 29 16 ZZW 1006,9 20
19.07.2017 16:00:00 19,7 17,9 18,4 25 14 29 16 ZW 1007,1 12
19.07.2017 15:00:00 19,8 18,3 18,4 14 8 29 16 WZW 1006,9 10
19.07.2017 14:00:00 19,9 18,0 18,4 25 14 36 19 ZW 1007,3 12
19.07.2017 13:00:00 22,0 17,9 18,4 25 14 36 19 ZZO 1006,3 20
19.07.2017 12:00:00 21,6 18,0 18,4 29 16 32 18 ZO 1006,6 21
19.07.2017 11:00:00 20,9 17,8 18,4 25 14 36 19 ZO 1006,8 20
19.07.2017 10:00:00 20,6 17,4 18,4 29 16 40 21 OZO 1006,7 20
19.07.2017 09:00:00 20,2 17,0 18,4 32 18 40 21 O 1006,6 22
19.07.2017 08:00:00 20,0 16,7 18,4 36 19 43 23 O 1007,0 43
19.07.2017 07:00:00 20,1 16,3 18,4 36 19 40 21 O 1007,4 30
19.07.2017 06:00:00 19,7 16,4 18,4 32 18 40 21 O 1008,3 33
19.07.2017 05:00:00 19,6 16,2 18,4 32 18 40 21 ONO 1008,7 33
19.07.2017 04:00:00 19,8 15,9 18,4 32 18 40 21 ONO 1009,8 43
19.07.2017 03:00:00 - - 18,4 32 18 36 19 ONO 1010,6 49
19.07.2017 02:00:00 - - 18,4 32 18 - - ONO 1011,6 40
19.07.2017 01:00:00 - - 18,4 32 18 36 19 ONO 1012,4 39
19.07.2017 00:00:00 - - 18,4 29 16 36 19 NO 1013,1 38
18.07.2017 23:00:00 - - 18,4 29 16 - - NO 1013,6 33
18.07.2017 22:00:00 - - 18,4 32 18 40 21 NO 1013,9 34
18.07.2017 21:00:00 - - 18,4 32 18 36 19 NO 1014,4 34
18.07.2017 20:00:00 - - 18,4 32 18 - - NO 1014,8 37
18.07.2017 19:00:00 - - 18,4 32 18 36 19 NNO 1015,3 30
18.07.2017 18:00:00 - - 18,4 32 18 36 19 NO 1016,0 27
18.07.2017 17:00:00 - - 18,4 32 18 - - NNO 1016,2 28
18.07.2017 16:00:00 - - 18,3 32 18 36 19 NNO 1016,9 29
18.07.2017 15:00:00 - - 18,4 29 16 36 19 NNO 1017,9 26
18.07.2017 14:00:00 - - 18,4 29 16 - - NNO 1018,6 32
18.07.2017 13:00:00 18,6 15,1 18,3 25 14 29 16 NNO 1019,3 26
18.07.2017 12:00:00 18,3 14,9 18,3 25 14 29 16 NO 1019,7 26
18.07.2017 11:00:00 18,2 14,9 18,4 22 12 25 14 NO 1020,3 29
18.07.2017 10:00:00 17,9 14,7 18,3 18 10 22 12 ONO 1020,6 26
18.07.2017 09:00:00 17,8 14,5 18,4 18 10 22 12 ONO 1020,9 31
18.07.2017 08:00:00 17,7 14,0 18,3 18 10 25 14 ONO 1020,9 33
18.07.2017 07:00:00 17,8 13,3 18,4 22 12 29 16 ONO 1020,9 39
18.07.2017 06:00:00 17,8 13,5 18,4 22 12 25 14 ONO 1021,1 41
18.07.2017 05:00:00 18,1 13,4 18,3 22 12 25 14 ONO 1021,2 46
18.07.2017 04:00:00 18,2 13,6 18,4 18 10 25 14 ONO 1021,7 47
18.07.2017 03:00:00 18,3 14,2 18,4 22 12 25 14 ONO 1022,0 42
18.07.2017 02:00:00 18,2 13,5 18,3 18 10 22 12 NO 1022,3 48
18.07.2017 01:00:00 18,0 13,4 18,4 18 10 22 12 NO 1022,5 47
18.07.2017 00:00:00 17,9 12,9 18,3 14 8 18 10 NO 1022,6 49
17.07.2017 23:00:00 17,9 12,3 18,3 14 8 18 10 NNO 1022,8 49
17.07.2017 22:00:00 17,9 11,7 18,3 14 8 18 10 NNO 1022,9 48
17.07.2017 21:00:00 17,8 11,5 18,4 14 8 14 8 NO 1022,8 47
17.07.2017 20:00:00 17,6 12,0 18,3 14 8 14 8 NO 1022,9 44
17.07.2017 19:00:00 17,5 12,0 18,3 14 8 18 10 NNO 1023,0 47
17.07.2017 18:00:00 17,6 12,0 18,3 11 6 14 8 NNO 1023,3 44
17.07.2017 17:00:00 17,6 11,4 18,3 11 6 14 8 NNO 1023,7 49
17.07.2017 16:00:00 17,6 11,4 18,3 11 6 14 8 NNO 1023,8 46
17.07.2017 15:00:00 17,5 12,1 18,2 11 6 14 8 N 1023,9 47
17.07.2017 14:00:00 17,5 13,2 18,3 7 4 11 6 NNO 1024,1 40
17.07.2017 13:00:00 17,4 13,5 18,2 7 4 14 8 NNO 1024,2 45
17.07.2017 12:00:00 17,3 13,8 18,2 11 6 14 8 NNO 1024,0 46
17.07.2017 11:00:00 17,6 14,0 18,2 11 6 - - N 1024,1 44
17.07.2017 10:00:00 - - 18,2 8 4 - - NO 1024,0 45
17.07.2017 09:00:00 17,5 14,0 18,2 11 6 18 10 NO 1023,8 47
17.07.2017 08:00:00 17,2 14,7 18,2 14 8 18 10 NNO 1023,7 44

tt = temperatuur
td = dauwpunt
tw = water temperatuur
ff = windsnelheid
fx = windstoten
dd = windrichting
ppp = luchtdruk
vv = zicht

Weerstations in de omgeving